Location: Doazon
(43.4500°N, 0.5500°W)
Time: 02:49:35
(UTC+00:00)

Lacrosse 5 rocket - Visible Passes

Search period start: 17 March 2026 00:00
Search period end: 27 March 2026 00:00
Orbit: 395 x 480 km, 57.0° (Epoch: 16 March)

Date Brightness Start Highest point End Pass type
(mag) Time Alt. Az. Time Alt. Az. Time Alt. Az.
17 Mar 2.4 04:22:47 22° SSE 04:23:43 26° SE 04:26:29 10° ENE visible
18 Mar 3.5 03:43:16 15° ESE 03:43:16 15° ESE 03:44:38 10° E visible
18 Mar 1.1 05:16:38 16° WSW 05:18:56 45° NW 05:22:05 10° NE visible
19 Mar 0.5 04:36:58 54° WSW 04:37:33 74° NW 04:40:48 10° NE visible
20 Mar 2.0 03:57:10 39° ENE 03:57:10 39° ENE 03:59:24 10° NE visible
20 Mar 2.6 05:30:54 10° WNW 05:33:11 18° NNW 05:35:31 10° NNE visible
21 Mar 3.9 03:17:17 14° ENE 03:17:17 14° ENE 03:17:51 10° ENE visible
21 Mar 2.2 04:50:37 20° WNW 04:51:37 24° NNW 04:54:19 10° NNE visible
22 Mar 2.0 04:10:38 31° N 04:10:38 31° N 04:13:02 10° NNE visible
23 Mar 3.3 03:30:33 19° NNE 03:30:33 19° NNE 03:31:40 10° NE visible
23 Mar 3.2 05:04:29 10° NW 05:05:51 12° NNW 05:07:14 10° N visible
24 Mar 2.9 04:23:44 15° NNW 04:24:07 15° NNW 04:26:05 10° NNE visible
25 Mar 3.2 03:43:31 16° N 03:43:31 16° N 03:44:49 10° NNE visible
26 Mar 4.1 03:03:14 11° NNE 03:03:14 11° NNE 03:03:27 10° NNE visible
